UVSQ-Sat NG

operational
NORAD ID: 63251 Int'l Des: 2025-052 Owner: LATMOS Country: F
LEOCIRCULARRETROGRADESSO

Über UVSQ-Sat NG

Beschreibung wird geladen...

Live-Position

3D-Globus wird geladen...

Nächste Überflüge

Höhenverlauf

Altitude vs Time

uPlot chart will show altitude changes over time

Zweizeiliger Elementsatz

1 63251U 25052AT 26063.12061925 .00005028 00000-0 46694-3 0 9991
2 63251 97.6988 316.5982 0002201 180.0109 180.1112 14.94827163 52932
Epoch: 4. März 2026 • Age: 22 hours

Aktueller Status

Höhe 590.8 km
Geschwindigkeit 7.57 km/s
Subsatellitenpunkt 45.04°N, 171.33°E
Startdatum 15. März 2025
Alter 0.9 years
Typ other

Technische Details

Klassifizierung Payload
Masse 12.00 kg
Trockenmasse 12.00 kg
Gesamtmasse 12.00 kg
Länge 0.30 m
Durchmesser 0.20 m
Spannweite 0.50 m
Form Box+ 2 pan
Hersteller LATMOS
Bus-Typ Cubesat 6U
Phasenstatus In Orbit
Besitzer/Staat LATMOS/F

Große Konstellationen

Loading constellations...